Location: Risskov
(56.1972°N, 10.2480°E)
Time: 23:24:23
(UTC+00:00)

Cosmos 1515 Rocket - Pass Details

Date: 05 July 2020
Orbit: 606 x 630 km, 82.5° (Epoch: 03 August)

Event Time Altitude Azimuth Distance (km) Brightness Sun altitude
Rises 22:32:55 0° 350° (N) 2,881 9.3 -10.4°
Reaches altitude 10° 22:35:12 10° 355° (N) 1,973 7.7 -10.5°
Maximum altitude 22:39:28 52° 72° (ENE) 764 4.1 -10.6°
Enters shadow 22:43:14 13° 148° (SSE) 1,780 5.3 -10.7°
